Weather Roundup
Issued by NWS Chicago, IL

Home | Current Version | Previous Version | Graphics & Text | Print | Product List | Glossary On
Versions: 1 2 3 4 5 6 7 8 9 10 11 12 13 14 15 16 17 18 19 20 21 22 23 24 25 26 27 28 29 30 31 32 33 34 35 36 37 38 39 40 41 42 43 44 45 46 47 48 49 50
000
NZUS59 KLOT 281300
HRRLOT

CHICAGO AREA WEATHER ROUNDUP
NATIONAL WEATHER SERVICE CHICAGO/ROMEOVILLE IL
700 AM CST WED JAN 28 2015

NOTE: "FAIR" INDICATES FEW OR NO CLOUDS BELOW 12,000 FEET WITH NO
SIGNIFICANT WEATHER AND/OR OBSTRUCTIONS TO VISIBILITY.

* THESE STATIONS ARE NOT UNDER NWS QUALITY CONTROL. THEY ALSO MAY NOT
  REPORT WEATHER SUCH AS PRECIPITATION OR FOG.

ILZ005-006-012>014-019>023-281400-
NORTHEAST ILLINOIS

CITY           SKY/WX    TMP DP  RH WIND       PRES   REMARKS
OHARE          MOCLDY    20  16  84 S6        30.28R WCI  12
MIDWAY         PTCLDY    24  16  71 S7        30.29S WCI  16
AURORA         MOCLDY    19  14  81 SE6       30.27R WCI  11
WAUKEGAN       PTCLDY    16  14  92 SW5       30.26S WCI   9
DUPAGE AIRPORT MOCLDY    17  14  88 S6        30.27R WCI   9
WHEELING       PTCLDY    19  16  88 S3        30.30R
NORTHERLY IS     N/A     23  14  68 SE6         N/A  WCI  16
$$

WIZ051-052-058>065-066-070>072-281400-
SOUTHEAST WISCONSIN

CITY           SKY/WX    TMP DP  RH WIND       PRES   REMARKS
MILWAUKEE      MOCLDY    23  17  78 S6        30.26S WCI  16
KENOSHA*       MOCLDY    22  18  85 S5        30.26F WCI  16
RACINE*        PTCLDY    20  16  84 SW3       30.28S
WAUKESHA       PTCLDY    19  16  86 S5        30.25  WCI  13
$$

INZ001>003-010>013-019-020-281400-
NORTHWEST INDIANA

CITY           SKY/WX    TMP DP  RH WIND       PRES   REMARKS
GARY*          PTCLDY    21  12  68 SE8       30.31R WCI  12
MICHIGAN CITY* NOT AVBL
RENSSELAER*    NOT AVBL
$$

LMZ740>746-281400-
SOUTHERN LAKE MICHIGAN

STATION/POSITION TIME  SKY/WX   TEMP WIND        PRES    VSBY
                                AIR  DIR/SP/G
                 (UTC)          (F)  (DEG/KT/KT) (MB)    (MI)
HARRISON CRIB    1200            26  180/ 12/ 15   N/A
BURNHAM HARBOR   1300            23  160/  5/  9   N/A
CALUMET HARBOR   1200            22  170/  6/  8   N/A
BURNS HARBOR     NOT AVBL
MICHIGAN CITY    1200            21  120/  6/  8   N/A
$$

ABBREVIATIONS USED IN REMARKS
   TC - TEMPERATURE IN CELSIUS
  WCI - WIND CHILL INDEX
   HX - HEAT INDEX
  VSB - VISIBILITY
$$


USA.gov is the U.S. government's official web portal to all federal, state and local government web resources and services.